Weather History for Whitefield, NH

Change the Weather History Date:

Monday, March 31, 2014

  Actual Average Record
Temperature  
Mean Temperature 32 °F -  
Max Temperature 36 °F 40 °F 82 °F (1998)
Min Temperature 28 °F 21 °F 10 °F (2003)
Degree Days  
Heating Degree Days 33    
Moisture  
Dew Point 25 °F    
Average Humidity 75    
Maximum Humidity 88    
Minimum Humidity 62    
Precipitation  
Precipitation 0.03 in - - ()
Sea Level Pressure  
Sea Level Pressure 29.96 in    
Wind  
Wind Speed 10 mph (NE)    
Max Wind Speed 15 mph    
Max Gust Speed 24 mph    
Visibility 8 miles    
Events Rain , Snow    
Averages and records for this station are not official NWS values.
T = Trace of Precipitation, MM = Missing Value Source: NWS Daily Summary

Daily Weather History Graph

Daily Weather History Graph

Search for Another Location

Airport:

Trip Planner

Search our weather history database for the weather conditions in past years. The results will help you decide how hot, cold, wet, or windy it might be!

Date:

Astronomy

Mar. 31, 2014 Rise Set
Actual Time 6:29 AM EDT 7:12 PM EDT
Civil Twilight 5:59 AM EDT 7:41 PM EDT
Nautical Twilight 5:25 AM EDT 8:16 PM EDT
Astronomical Twilight 4:49 AM EDT 8:52 PM EDT
Moon 6:48 AM EDT (3/31) 8:31 PM EDT (3/31)
Length of Visible Light 13h 41m
Length of Day
12h 43m
New Moon, 1% of the Moon is Illuminated
Mar 31
New Moon
Apr 7
First Quarter
Apr 15
Full
Apr 22
Last Quarter
Apr 29
New

Hourly Weather History & Observations

Time (EDT) Temp. Windchill Dew Point Humidity Pressure Visibility Wind Dir Wind Speed Gust Speed Precip Events Conditions
12:52 AM 33.1 °F 23.9 °F 28.9 °F 85% 29.86 in 4.0 mi East 12.7 mph - 0.02 in Rain Light Rain
1:16 AM 33.1 °F 23.9 °F 28.9 °F 85% 29.82 in 5.0 mi East 12.7 mph - 0.01 in Rain Light Rain
1:37 AM 32.0 °F 24.2 °F 28.9 °F 88% 29.82 in 1.8 mi ENE 9.2 mph - 0.01 in Snow Light Snow
1:49 AM 32.0 °F 24.2 °F 28.4 °F 87% 29.82 in 1.0 mi East 9.2 mph - 0.01 in Snow Light Snow
1:52 AM 32.0 °F 24.2 °F 28.0 °F 85% 29.86 in 1.0 mi East 9.2 mph - 0.01 in Snow Light Snow
1:55 AM 32.0 °F 24.2 °F 28.0 °F 85% 29.82 in 1.2 mi East 9.2 mph - 0.00 in Snow Light Snow
2:08 AM 32.0 °F 24.2 °F 28.0 °F 85% 29.82 in 3.0 mi East 9.2 mph - 0.00 in   Overcast
2:52 AM 30.9 °F 23.5 °F 27.0 °F 85% 29.85 in 9.0 mi NE 8.1 mph - 0.00 in   Overcast
3:52 AM 30.9 °F 22.8 °F 26.1 °F 82% 29.85 in 10.0 mi NE 9.2 mph - N/A   Overcast
4:52 AM 30.0 °F 21.1 °F 26.1 °F 85% 29.87 in 10.0 mi NNE 10.4 mph - N/A   Overcast
5:36 AM 30.0 °F 21.7 °F 25.0 °F 82% 29.85 in 10.0 mi NNE 9.2 mph - N/A   Overcast
5:52 AM 30.0 °F 21.1 °F 24.1 °F 79% 29.89 in 10.0 mi NNE 10.4 mph - N/A   Overcast
6:08 AM 28.9 °F 21.1 °F 24.1 °F 82% 29.86 in 10.0 mi NE 8.1 mph - N/A   Overcast
6:52 AM 28.9 °F 20.4 °F 23.0 °F 78% 29.94 in 10.0 mi NE 9.2 mph - N/A   Overcast
7:52 AM 28.9 °F 21.1 °F 23.0 °F 78% 29.96 in 10.0 mi NE 8.1 mph - N/A   Overcast
8:52 AM 30.0 °F 22.4 °F 23.0 °F 75% 29.97 in 10.0 mi NE 8.1 mph - N/A   Overcast
9:52 AM 30.0 °F 20.5 °F 23.0 °F 75% 29.99 in 10.0 mi NE 11.5 mph 20.7 mph N/A   Overcast
10:52 AM 30.9 °F 22.2 °F 23.0 °F 72% 29.97 in 10.0 mi NE 10.4 mph 21.9 mph N/A   Overcast
11:52 AM 32.0 °F 24.8 °F 24.1 °F 73% 29.97 in 10.0 mi NNE 8.1 mph - N/A   Overcast
12:52 PM 34.0 °F 26.0 °F 24.1 °F 67% 29.97 in 10.0 mi North 10.4 mph 20.7 mph N/A   Mostly Cloudy
1:04 PM 35.1 °F 25.9 °F 24.1 °F 64% 29.94 in 10.0 mi NNE 13.8 mph 21.9 mph N/A   Mostly Cloudy
1:30 PM 35.1 °F 26.9 °F 24.1 °F 64% 29.94 in 10.0 mi North 11.5 mph 23.0 mph N/A   Mostly Cloudy
1:52 PM 36.0 °F 26.7 °F 24.1 °F 62% 29.98 in 10.0 mi North 15.0 mph 21.9 mph N/A   Mostly Cloudy
2:10 PM 35.1 °F 25.9 °F 24.1 °F 64% 29.94 in 10.0 mi NNE 13.8 mph 24.2 mph N/A   Overcast
2:52 PM 35.1 °F 27.9 °F 24.1 °F 64% 30.00 in 10.0 mi NNE 9.2 mph 17.3 mph N/A   Overcast
3:52 PM 35.1 °F 27.9 °F 25.0 °F 67% 30.02 in 10.0 mi NE 9.2 mph 19.6 mph N/A   Overcast
4:52 PM 35.1 °F 27.4 °F 25.0 °F 67% 30.02 in 10.0 mi ENE 10.4 mph 21.9 mph N/A   Overcast
5:52 PM 33.1 °F 26.1 °F 24.1 °F 70% 30.06 in 10.0 mi NE 8.1 mph 19.6 mph N/A   Overcast
6:52 PM 33.1 °F 24.9 °F 24.1 °F 70% 30.09 in 10.0 mi NE 10.4 mph 18.4 mph N/A   Overcast
7:52 PM 32.0 °F 24.2 °F 24.1 °F 73% 30.11 in 10.0 mi NE 9.2 mph - N/A   Overcast
8:52 PM 32.0 °F 24.8 °F 23.0 °F 69% 30.13 in 10.0 mi NE 8.1 mph - N/A   Overcast
9:52 PM 32.0 °F 23.6 °F 23.0 °F 69% 30.12 in 10.0 mi NE 10.4 mph - N/A   Overcast
10:52 PM 32.0 °F 24.8 °F 21.9 °F 66% 30.13 in 10.0 mi NE 8.1 mph - N/A   Overcast
11:31 PM 30.0 °F 23.2 °F 21.0 °F 69% 30.09 in 10.0 mi NE 6.9 mph - N/A   Scattered Clouds
11:52 PM 30.0 °F 22.4 °F 21.0 °F 69% 30.14 in 10.0 mi NE 8.1 mph - N/A   Mostly Cloudy